Flag for Sweden Weather past 2 weeks in Helsingborg, Sweden

39 °F


Feels Like: 39 °F
Forecast: 40 / 44 °F
Wind: 2 mph from East

Location: Ljungbyhed

Current Time: Nov 26, 2015 at 1:13:08 AM

Latest Report: Nov 26, 2015 at 12:20 AM

Visibility: 1 mi

Pressure: 29.59 "Hg

Humidity: 100%

Dew point: 39 °F

Location of HelsingborgLocation

Historic Weather in Helsingborg — Graph


Helsingborg temperature yesterday

Maximum temperature yesterday: 39 °F (at 12:20 AM)
Minimum temperature yesterday: 37 °F (at 12:50 AM)
Average temperature yesterday: 39 °F

Past Weeks' High & Low Weather Summary

High57 °F (Nov 11, 12:50 AM)100% (Nov 11, 5:20 AM)30.12 "Hg (Nov 11, 5:20 AM)
Low7 °F (Nov 23, 8:20 AM)75% (Nov 21, 4:50 PM)29.09 "Hg (Nov 18, 3:50 AM)
Average41 °F92%29.64 "Hg
* Reported Nov 11 12:50 AM — Nov 26 12:20 AM, Helsingborg, Weather by CustomWeather, © 2015

Note: Actual official high and low records may vary slightly from our data, if they occured in-between our weather recording intervals... More about our weather records


Helsingborg weather history for previous 24 hours

Time TempWeatherWind HumidityBarometerVisibility
12:20 AM
Thu, Nov 26
39 °FFog.2 mph100%29.59 "Hg1 mi
11:50 PM
Wed, Nov 25
39 °FFog.3 mph100%29.59 "Hg2 mi
11:20 PM39 °FFog.2 mph100%29.59 "Hg1 mi
10:50 PM39 °FFog.3 mph100%29.59 "Hg2 mi
10:20 PM39 °FFog.3 mph100%29.59 "Hg1 mi
9:50 PM39 °FMostly cloudy.3 mph100%29.59 "Hg1 mi
9:20 PM39 °FLow clouds.3 mph100%29.56 "Hg1 mi
8:50 PM39 °FFog.3 mph100%29.56 "Hg1 mi
8:20 PM39 °FFog.2 mph100%29.56 "Hg2 mi
7:50 PM39 °FFog.3 mph100%29.56 "Hg1 mi
7:20 PM39 °FFog.2 mph100%29.56 "Hg1 mi
6:50 PM39 °FFog.2 mph100%29.56 "Hg1 mi
6:20 PM39 °FLight rain. Low clouds.2 mph100%29.53 "Hg1 mi
5:50 PM39 °FDrizzle. Low clouds.3 mph100%29.53 "Hg1 mi
5:20 PM39 °FFog.2 mph100%29.53 "Hg2 mi
4:50 PM39 °FFog.2 mph100%29.53 "Hg3 mi
4:20 PM39 °FFog.5 mph100%29.53 "Hg3 mi
3:50 PM39 °FFog.3 mph100%29.53 "Hg3 mi
3:20 PM39 °FFog.3 mph100%29.53 "Hg2 mi
2:50 PM39 °FFog.5 mph100%29.53 "Hg1 mi
2:20 PM39 °FFog.5 mph100%29.53 "Hg3 mi
1:50 PM39 °FFog.5 mph100%29.53 "Hg2 mi
1:20 PM39 °FDrizzle. Low clouds.3 mph100%29.53 "Hg4 mi
12:50 PM39 °FDrizzle. Partly sunny.3 mph100%29.53 "HgN/A
12:20 PM39 °FLight rain. Broken clouds.6 mph100%29.53 "HgN/A
11:50 AM39 °FDrizzle. Broken clouds.5 mph100%29.56 "HgN/A
11:20 AM39 °FMostly cloudy.5 mph93%29.56 "HgN/A
10:50 AM39 °FDrizzle. Cloudy.5 mph93%29.56 "Hg6 mi
10:20 AM39 °FDrizzle. Low clouds.5 mph93%29.56 "HgN/A
9:50 AM39 °FDrizzle. Cloudy.6 mph93%29.56 "HgN/A
9:20 AM37 °FDrizzle. Low clouds.5 mph100%29.56 "HgN/A
8:50 AM37 °FDrizzle. Partly sunny.6 mph100%29.56 "HgN/A
8:20 AM37 °FDrizzle. Low clouds.5 mph100%29.56 "HgN/A
7:50 AM37 °FDrizzle. Low clouds.6 mph100%29.56 "HgN/A
6:50 AM37 °FDrizzle. Low clouds.8 mph100%29.56 "HgN/A
6:20 AM37 °FDrizzle. Mostly cloudy.7 mph100%29.56 "HgN/A
5:50 AM37 °FDrizzle. Mostly cloudy.7 mph100%29.56 "HgN/A
5:20 AM37 °FDrizzle. Mostly cloudy.7 mph100%29.56 "HgN/A
4:20 AM37 °FLight rain. Low clouds.8 mph93%29.59 "HgN/A
3:50 AM37 °FPartly cloudy.8 mph93%29.59 "Hg4 mi
3:20 AM37 °FDrizzle. Mostly cloudy.9 mph93%29.59 "HgN/A
2:50 AM37 °FLight rain. Mostly cloudy.10 mph93%29.59 "HgN/A
2:20 AM37 °FDrizzle. Mostly cloudy.9 mph93%29.62 "HgN/A
1:20 AM37 °FPassing clouds.10 mph93%29.62 "HgN/A
Weather by CustomWeather, © 2015

See weather overviewHow to use our weather pages